Location: Albersweiler
(49.2188°N, 8.0283°E)
Time: 22:02:55
(UTC+00:00)

Daily predictions for brighter satellites

Satellite Brightness Start Highest point End
(mag) Time Altitude Azimuth Time Altitude Azimuth Time Altitude Azimuth
COSMO-SKYMED 1 2.6 17:45:06 10° NNE 17:49:29 88° ESE 17:53:50 10° SSW
Nadezhda 4 Rocket 4.4 17:46:23 10° N 17:52:07 40° ENE 17:57:50 10° SE
Cosmos 1689 Rocket 3.0 17:50:24 10° N 17:53:19 52° WNW 17:56:13 10° SSW
Ariane Rocket 4.2 17:49:48 10° ESE 17:53:48 24° ENE 17:57:49 10° N
H-2A R/B 2.3 17:49:44 10° SE 17:54:30 46° ENE 17:59:26 10° N
SJ 16-02 3.8 17:52:11 10° WSW 17:55:51 26° NW 17:59:33 10° N
Cosmos 2263 Rocket 3.0 17:53:40 10° SW 17:59:08 54° NW 18:04:39 10° NNE
USA 116 4.0 17:56:12 10° NNE 17:59:42 42° E 18:03:36 10° S
COSMOS 2406 4.4 17:56:20 10° NNW 18:01:06 26° NE 18:05:50 10° E
Cosmos 1939 Rocket 4.0 17:58:26 10° S 18:02:29 51° W 18:06:33 10° NNW
Cosmos 1844 Rocket 3.0 17:58:23 10° S 18:03:36 43° ESE 18:08:53 10° NE
Cosmos 1707 2.6 18:00:46 10° N 18:04:38 83° E 18:08:28 10° S
Cosmos 372 Rocket 4.0 18:00:13 10° SSW 18:05:27 77° ESE 18:10:41 10° NNE
Cosmos 1626 4.0 18:03:54 10° NNE 18:05:53 14° ENE 18:07:28 11° E
NOSS 3-2 (C) 4.1 17:58:59 10° NW 18:06:20 74° NE 18:14:44 10° SE
Cosmos 1844 4.1 18:05:48 10° S 18:11:04 40° ESE 18:16:19 10° NE
Cosmos 2034 Rocket 4.3 18:05:29 10° SSE 18:11:31 48° E 18:17:33 10° NNE
ISS -3.7 18:08:12 10° WSW 18:11:34 80° NNW 18:14:49 11° ENE
Meteor 2-5 Rocket 4.5 18:07:11 10° N 18:12:18 33° ENE 18:17:28 10° SE
NOSS 3-4 (A) 4.3 18:07:52 10° SSE 18:12:33 25° ESE 18:17:25 10° ENE
NOSS 3-4 (C) 4.3 18:08:00 10° SSE 18:12:39 24° ESE 18:17:30 10° ENE
USA 186 3.0 18:11:03 11° ESE 18:13:30 24° ENE 18:16:13 10° NNE
Lacrosse 4 Rocket 3.5 18:12:03 10° N 18:14:11 14° NNE 18:16:18 10° ENE
Meteor 1-12 Rocket 4.3 18:09:01 10° S 18:14:50 69° E 18:20:35 10° NNE
Cosmos 1300 Rocket 3.5 18:15:44 10° S 18:20:07 73° E 18:24:35 10° NNE
Okean 1 Rocket 3.9 18:19:35 10° SSE 18:23:26 29° E 18:27:20 10° NNE
Sich 1 Rocket 4.1 18:20:00 10° SSW 18:24:29 67° W 18:29:04 10° N
CENTAUR R/B 3.2 18:17:25 10° NW 18:25:24 85° NE 18:34:14 10° SE
NOSS 2-2 (E) 4.4 18:22:08 10° WSW 18:25:35 44° NW 18:29:40 10° NE
Cosmos 1833 Rocket 3.7 18:21:46 10° NNW 18:26:41 29° NE 18:30:11 16° E
Cosmos 2298 Rocket 4.0 18:21:24 10° SSW 18:26:44 79° ESE 18:32:05 10° NNE
Resurs 01 Rocket 3.4 18:25:52 13° ENE 18:27:11 15° ENE 18:29:41 10° NNE
CSL-04 Debris 4.4 18:25:15 10° S 18:30:37 75° WSW 18:36:03 10° NNW
CSL-04 Rocket 3.9 18:27:08 10° S 18:32:35 77° WSW 18:38:09 10° NNW
Cosmos 1025 Rocket 3.3 18:29:38 10° NNW 18:34:01 72° W 18:38:24 10° S
Cosmos 1766 4.1 18:31:00 10° SSE 18:34:25 29° E 18:37:52 10° NNE
Okean 2 Rocket 3.2 18:30:12 10° SSW 18:34:41 80° W 18:39:11 10° N
ATLAS 2AS CENTAUR R/B 3.4 18:27:48 10° S 18:34:57 39° ESE 18:42:05 10° NE
YAOGAN 1 3.8 18:31:08 10° S 18:35:16 45° W 18:39:27 10° NNW
NOSS 2-2 (D) 4.3 18:32:01 10° WSW 18:35:26 44° NW 18:39:26 10° NE
ATLAS 3B R/B 3.2 18:31:09 10° NW 18:37:43 47° NE 18:42:35 19° ESE
Abrixas rocket 2.7 18:38:21 10° W 18:41:04 40° SSW 18:42:11 26° SSE
SPOT 3 Rocket 4.5 18:40:10 20° ESE 18:42:36 29° ENE 18:47:01 10° N
CREW DRAGON DEMO-1 DEB 3.3 18:39:58 10° WNW 18:42:55 50° SSW 18:44:16 27° SE
Cosmos 1536 Rocket 3.8 18:39:21 10° NNW 18:43:49 77° W 18:48:17 10° S
Cosmos 1125 Rocket 3.4 18:42:04 10° SSW 18:47:22 75° ESE 18:52:42 10° NNE
Resurs 1-3 4.4 18:48:54 25° E 18:50:19 31° ENE 18:54:13 10° N
SJ-6B 2.9 18:48:31 24° SE 18:50:27 50° ENE 18:54:09 10° N
Cosmos 1892 Rocket 4.4 18:46:43 10° N 18:50:31 29° ENE 18:51:24 27° E
CZ-4 R/B 3.9 18:49:32 10° SSW 18:53:02 25° W 18:56:30 10° NW
Cosmos 2195 Rocket 4.5 18:47:53 10° N 18:54:05 63° ENE 19:00:07 10° SSE
Cosmos 2150 Rocket 4.4 18:48:58 10° SSW 18:54:21 71° WNW 18:59:50 10° NNE
CZ-2C R/B 4.3 18:49:51 10° S 18:55:02 47° W 19:00:31 10° NNW
Cosmos 1464 Rocket 4.4 18:49:35 10° SSW 18:55:41 65° WNW 19:01:52 10° N
Cosmos 1674 2.8 18:52:21 10° NNW 18:56:13 78° W 19:00:02 10° S
Cosmos 2026 Rocket 4.1 18:50:39 10° N 18:56:57 58° ENE 19:02:16 15° SSE
Cosmos 1092 Rocket 3.9 18:51:00 10° N 18:57:11 73° E 19:03:23 10° SSE
Cosmos 2285 Rocket 3.9 18:51:49 10° SSW 18:58:05 73° ESE 19:04:27 10° NNE
MOS 1 Rocket 3.3 18:58:06 10° N 19:02:29 71° WNW 19:06:45 10° SSW
FREGAT/IRIS 2.6 19:04:41 52° NNE 19:04:41 52° NNE 19:06:50 10° N
Cosmos 1428 Rocket 4.5 18:59:18 10° N 19:05:32 62° ENE 19:10:06 19° SSE
TSX-5 4.0 19:05:24 10° SSW 19:09:12 57° ESE 19:14:08 10° NE
ARGOS 3.8 19:05:17 10° S 19:10:33 57° W 19:15:53 10° NNW
CZ-2C R/B 2.6 19:07:11 10° NNE 19:12:45 68° ESE 19:18:20 10° S
Cosmos 1340 Rocket 3.1 19:15:11 46° E 19:15:11 46° E 19:18:43 10° NNE
Cosmos 2279 Rocket 4.3 19:12:59 27° SE 19:15:49 42° E 19:21:39 10° NNE
Cosmos 1733 3.0 19:13:48 18° S 19:16:33 76° E 19:20:23 10° NNE
MOS 1 4.3 19:13:05 15° SSE 19:17:53 88° WSW 19:23:39 10° NNW
GRACE-FO 1 4.4 19:14:32 10° N 19:18:16 76° E 19:19:03 53° SSE
GRACE-FO 2 4.4 19:14:54 10° N 19:18:39 77° E 19:19:25 53° SSE
Lacrosse 5 rocket 2.7 19:15:09 10° NW 19:19:12 35° NNE 19:20:43 27° NE
Cosmos 2082 Rocket 2.8 19:14:36 10° NNW 19:19:53 39° NE 19:21:17 34° E
Cosmos 2098 Rocket 4.5 19:13:50 10° N 19:20:05 37° ENE 19:21:19 34° E
DMSP B5D2-2 4.0 19:17:17 10° NNE 19:22:36 71° ESE 19:27:51 10° S
BREEZE-M DEB (TANK) 4.4 19:19:54 10° W 19:23:15 33° SSW 19:27:36 20° SSE
BREEZE-M R/B 3.3 19:15:06 10° WSW 19:23:54 72° SSE 19:24:25 59° ESE
OBJECT-B 1.2 19:28:48 56° N 19:28:48 56° N 19:31:29 10° N
Cosmos 1805 3.9 19:24:39 10° SSW 19:28:30 57° WNW 19:32:23 10° N
Cosmos 2142 Rocket 4.5 19:24:37 17° SSE 19:29:27 60° E 19:35:33 10° NNE
Ariane Rocket 3.5 19:28:06 14° S 19:32:23 58° WSW 19:37:26 10° NNW
H-2A R/B 4.0 19:29:54 10° SSW 19:34:09 27° W 19:38:31 10° NW
Cosmos 1626 2.7 19:37:51 10° NNW 19:41:30 54° W 19:42:02 48° SW
Terra 4.0 19:42:51 14° NE 19:42:51 14° NE 19:44:20 10° NNE
Okean 1-7 Rocket 3.6 19:37:19 10° N 19:41:51 67° ENE 19:41:51 67° ENE
USA 186 4.1 19:42:35 17° SW 19:44:08 24° W 19:46:53 10° NW
Cosmos 1455 Rocket 4.0 19:47:18 35° NNE 19:47:18 35° NNE 19:49:58 10° NNE
COSMOS 2406 3.3 19:40:17 10° NNW 19:45:57 71° WSW 19:47:55 41° S
Cosmos 1844 Rocket 4.1 19:42:25 10° WSW 19:47:35 38° NW 19:52:48 10° NNE
SPOT 1/Viking Rocket 4.4 19:48:44 35° NE 19:48:44 35° NE 19:52:54 10° N
ISS -2.5 19:45:17 10° WNW 19:47:46 41° NW 19:47:46 41° NW
Cosmos 2278 Rocket 2.1 19:45:50 10° SSW 19:51:32 62° ESE 19:56:59 10° NNE
Lacrosse 4 Rocket 1.9 19:49:34 10° NNW 19:52:52 52° N 19:52:52 52° N
Meteor 1-24 Rocket 4.4 19:52:49 10° NNW 19:58:13 53° W 20:01:37 23° SSW
Cosmos 909 Rocket 4.0 19:52:15 10° NW 19:58:50 71° NE 19:59:55 59° ESE
Cosmos 2266 Rocket 4.0 19:54:35 10° N 20:00:31 55° ENE 20:00:33 55° ENE
SL-14 R/B 4.5 19:57:42 10° NNW 20:01:23 39° W 20:01:55 37° WSW
Meteor 2-19 Rocket 4.3 19:56:18 10° N 20:02:28 89° E 20:03:47 58° S
NOSS 3-4 (A) 3.5 19:56:47 10° SW 20:02:44 75° NW 20:09:10 10° NE
NOSS 3-4 (C) 3.5 19:56:53 10° SW 20:02:49 76° NW 20:09:17 10° NE
Resurs 01 Rocket 1.7 20:03:26 73° NW 20:03:26 73° NW 20:07:33 10° NNW
Cosmos 1833 Rocket 3.0 20:05:26 10° NW 20:11:02 61° WSW 20:11:54 54° SSW
CZ-2C R/B 4.4 20:06:45 10° NNE 20:09:58 47° N 20:09:58 47° N
Cosmos 2251 Rocket 3.5 20:08:31 10° NNW 20:13:44 84° NNW 20:13:44 84° NNW
ERS-1 Rocket 4.1 20:17:40 32° NNE 20:17:40 32° NNE 20:20:52 10° N
ARIANE 5 R/B 3.6 20:20:05 41° NNW 20:20:05 41° NNW 20:22:58 10° NNW
SPOT 3 Rocket 4.3 20:20:50 41° SW 20:21:49 46° W 20:26:48 10° NNW
ATLAS 2AS CENTAUR R/B 3.2 20:17:42 10° SW 20:25:39 69° NW 20:33:29 10° NE
ATLAS 3B R/B 3.1 20:21:55 10° NW 20:28:36 56° WSW 20:29:50 49° SSW
SPOT 5 4.1 20:33:48 37° NNE 20:33:48 37° NNE 20:37:21 10° N
Meteor 1-21 Rocket 4.3 20:27:51 10° NNW 20:33:15 77° NW 20:33:15 77° NW
Cosmos 1655 Rocket 4.2 20:30:55 10° NNW 20:37:09 67° W 20:37:50 62° SW
Lacrosse 5 rocket 3.6 20:54:20 10° NW 20:56:20 26° NW 20:56:20 26° NW
Cosmos 2082 Rocket 3.3 20:58:46 10° NW 21:03:08 39° W 21:03:08 39° W
Terra 3.9 21:21:45 24° NNW 21:21:45 24° NNW 21:23:36 10° NNW
Cosmos 2278 Rocket 3.9 21:33:01 19° W 21:35:54 29° NW 21:40:48 10° NNE
ATLAS 2AS CENTAUR R/B 4.4 22:11:00 10° W 22:18:01 33° NNW 22:24:49 10° NE
CZ-4C R/B 4.3 22:45:17 24° NNE 22:45:17 24° NNE 22:48:33 10° NE
Cosmos 2297 Rocket 4.4 22:54:11 10° NNW 22:56:26 20° N 22:56:26 20° N
Cosmos 2369 Rocket 4.5 23:10:31 19° NNE 23:10:31 19° NNE 23:12:13 10° NNE
SL-16 R/B 4.2 23:50:37 28° NNE 23:50:37 28° NNE 23:54:24 10° N
